Regional Weather Roundup
Issued by NWS Mobile, AL

Home | Current Version | Previous Version | Text Only | Print | Product List | Glossary On
Versions: 1 2 3 4 5 6 7 8 9 10 11 12 13 14 15 16 17 18 19 20 21 22 23 24 25 26 27 28 29 30 31 32 33 34 35 36 37 38 39 40 41 42 43 44 45 46 47 48 49 50
000
ASUS44 KMOB 141510
RWRMOB
REGIONAL WEATHER ROUNDUP
NATIONAL WEATHER SERVICE MOBILE AL
1000 AM CDT MON JUL 14 2014

NOTE: "FAIR" INDICATES FEW OR NO CLOUDS BELOW 12,000 FEET WITH NO
      SIGNIFICANT WEATHER AND/OR OBSTRUCTIONS TO VISIBILITY.

  * THESE STATIONS ARE PART OF THE UNIVERSITY OF SOUTH ALABAMA
    MESONET AND ARE NOT UNDER NWS OR FAA QUALITY CONTROL.

ALZ061>064-141600-
COASTAL ALABAMA

CITY           SKY/WX    TMP DP  RH WIND       PRES   REMARKS
MOBILE REG APT PTSUNNY   86  73  65 S9        30.08S
BROOKLEY FIELD MOSUNNY   87  74  64 VRB5      30.08S HX  95
USA CAMPUS*      N/A     86  75  70 CALM      30.05F HX  95
DOG RIVER*       N/A     86  73  66 S8        30.07F


CITY           SKY/WX    TMP DP  RH WIND       PRES   REMARKS
MOUNT VERNON*    N/A     82  73  74 CALM      30.06F
SARALAND*      NOT AVBL
BAY MINETTE*   NOT AVBL
LOXLEY*          N/A     82  72  69 W8        30.07F
ROBERTSDALE*     N/A     81  72  74 CALM      30.07F
FAIRHOPE*        N/A     84  75  74 SW6       30.06F
ELBERTA*         N/A     86  75  70 S3        30.07S HX  95
FOLEY*         NOT AVBL
GRAND BAY*       N/A     81  75  83 SE2       30.05S
DAUPHIN ISLND* NOT AVBL
BON SCOUR NWR* NOT AVBL
GULF SHORES    MOSUNNY   86  74  66 SW9       30.07S

$$

ALZ051>060-141600-
INTERIOR SOUTHWEST AND SOUTH CENTRAL ALABAMA

CITY           SKY/WX    TMP DP  RH WIND       PRES   REMARKS
GREENVILLE     SUNNY     86  70  58 SW8       30.07F
EVERGREEN      MOSUNNY   86  73  65 SW8       30.08F
CASTLEBERRY*   NOT AVBL
ATMORE*          N/A     84  73  70 SW7       30.09S
DIXIE*         NOT AVBL
ANDALUSIA/OPP  MOSUNNY   91  72  53 VRB3      30.08F HX  98
ANDALUSIA*     NOT AVBL
FLORALA APT    MOSUNNY   84  73  69 VRB3      30.10S
FLORALA*         N/A     84  73  70 CALM      30.06S

$$

FLZ001>006-141600-
WESTERN FLORIDA PANHANDLE

CITY           SKY/WX    TMP DP  RH WIND       PRES   REMARKS
PENSACOLA      RAIN      86  72  62 SW9       30.08S
NAS PENSACOLA  PTSUNNY   87  74  64 SW8       30.07S HX  95
MILTON         PTSUNNY   85  72  65 S7        30.08S
WHTNG S FIELD  PTSUNNY   83  73  72 S5        30.08S


CITY           SKY/WX    TMP DP  RH WIND       PRES   REMARKS
WALNUT HILL*   NOT AVBL
JAY*           NOT AVBL
DUKE FIELD     MOSUNNY   86  74  66 SW7       30.07F
CRESTVIEW      MOSUNNY   86  72  62 SW7         N/A
VALPARAISO     MOSUNNY   88  74  63 CALM      30.08S HX  96
DESTIN         SUNNY     87  74  64 S6        30.08S HX  95

$$

MSZ076-079-141600-
INTERIOR SOUTHEAST MISSISSIPPI

CITY           SKY/WX    TMP DP  RH WIND       PRES   REMARKS
LEAKESVILLE*     N/A     82  72  69 SW5       30.06F
AGRICOLA*      NOT AVBL

$$

MARINE OBSERVATIONS

STATION/POSITION TIME  TEMP    WIND        PRES    WAVE
                       AIR SEA DIR/SP/G            HT/PER
                 (UTC) (F)     (DEG/KT/KT) (MB)    (FT/S)
PASCAGOULA       1500   85     240/  8/ 12 1017.8R
PETIT BOIS ISLND 1500   83     240/  9/ 11 1018.5R
GRAND BAY        1400   85     220/  8     1019.0S
KATRINA CUT      1400   84     240/  9     1019.0S
CEDAR POINT      1400   83     240/  8     1018.0F
E DAUPHIN ISLAND 1500   85     230/  6/  8 1018.2S
MIDDLE BAY LIGHT 1400   83     210/ 10     1018.0S
USCG MOBILE BAY  1500   85 85  190/  4/  6 1017.1R
STATE DOCKS      1500   87 85              1017.8S
MEAHER PARK      1400   83     170/  6     1017.6S
WEEKS BAY        1400   81                   N/A
FORT MORGAN      1500   84     220/  4/  5 1017.9F
12 S ORANGE BCH  1500   84 86  210/  4/  6 1018.5F   2/ 5
PENSACOLA BAY    1500   87 82  170/  3/  5 1018.6S
64 S DAUPHIN ISL 1359   84 86  230/  6/  6 1019.1
67 S FORT MORGAN 1400   80                 1019.0R

$$

SELECTED LOCATIONS ACROSS THE REGION

CITY           SKY/WX    TMP DP  RH WIND       PRES   REMARKS
NEW ORLEANS    PTSUNNY   85  74  69 SW3       30.06F
GULFPORT       PTSUNNY   85  71  63 W6        30.06F
PASCAGOULA AP  MOSUNNY   81  75  82 N7        30.06S
PASCAGOULA*      N/A     86  77  74 S2        30.05F HX  97
HATTIESBURG    MOSUNNY   85  73  67 SW8       30.06F
LAUREL         MOSUNNY   84  73  70 W5        30.08S
MERIDIAN       SUNNY     85  70  60 SW5       30.04F
JACKSON        SUNNY     84  74  71 SW8       30.05S
MONTGOMERY     SUNNY     86  72  62 SW8       30.07S
TROY           MOSUNNY   86  72  62 VRB6      30.09F
KINSTON*       NOT AVBL
GENEVA*          N/A     84  72  65 CALM      30.10S
ASHFORD*       NOT AVBL
DOTHAN         MOSUNNY   86  71  60 SW8       30.13S
PANAMA CITY    LGT RAIN  85  73  67 S3        30.08S

$$




USA.gov is the U.S. government's official web portal to all federal, state and local government web resources and services.